Date String (YYYY-MM-DD hh:mm:ss) UTC,Instrument flags,absolute air pressure of the measurement (hPa),sample flow rate (lpm),inlet stack bypass flow (lpm),air temperature of the measurement (°C),ambient temperature measured by the external sensor (°C),aerosol sample conditioner tube jacket temperature (°C),OPC LED temperature (°C),internal box temperature (°C),relative humidity of the measurement (%),span deviation,mass concentration of particles derived from Lorenz-Mie calculation of OPC scattering (μg/m³),mass concentration of particles derived from Lorenz-Mie calculation of OPC scattering (μg/m³),mass concentration of particles derived from Lorenz-Mie calculation of OPC scattering (μg/m³)
DateTimeUTC,F1_M11,P_M11,Q1_M11,Q2_M11,T1_M11,T2_M11,T3_M11,T4_M11,T5_M11,U1_M11,ZSPAN_M11,X0_M11,X2_M11,X1_M11
2024-02-18 19:00:00,SystemResetWarning,0824.0,5.00,000.00,019.6,019.2,000.0,027.9,021.4,11.2,0000.0,0003.09,0001.64,0001.25
2024-02-18 19:01:00,SystemResetWarning,0823.9,5.01,000.00,019.6,019.3,000.0,027.9,021.4,12.2,0000.0,0003.09,0001.64,0001.24
2024-02-18 19:02:00,SystemResetWarning,0824.0,5.00,000.00,019.7,019.3,000.0,027.9,021.4,12.4,0000.0,0003.15,0001.64,0001.22
2024-02-18 19:03:00,SystemResetWarning,0824.0,5.00,000.00,019.7,019.3,000.0,028.0,021.5,12.2,0000.0,0003.10,0001.61,0001.20
2024-02-18 19:04:00,SystemResetWarning,0824.0,5.00,000.00,019.7,019.3,000.0,028.0,021.5,12.5,0000.0,0003.18,0001.60,0001.21
2024-02-18 19:05:00,SystemResetWarning,0823.9,5.00,000.00,019.7,019.3,000.0,028.0,021.5,12.8,0000.0,0003.12,0001.56,0001.20
2024-02-18 19:06:00,SystemResetWarning,0823.8,5.00,000.00,019.7,019.3,000.0,028.0,021.5,12.4,0000.0,0003.08,0001.53,0001.18
2024-02-18 19:07:00,SystemResetWarning,0823.8,5.01,000.00,019.7,019.4,000.0,028.0,021.5,12.3,0000.0,0002.85,0001.51,0001.16
2024-02-18 19:08:00,SystemResetWarning,0823.9,5.00,000.00,019.7,019.4,000.0,028.0,021.5,13.0,0000.0,0002.69,0001.48,0001.16
2024-02-18 19:09:00,SystemResetWarning,0824.0,4.99,000.00,019.8,019.4,000.0,028.0,021.5,13.3,0000.0,0002.58,0001.45,0001.16
2024-02-18 19:10:00,SystemResetWarning,0824.0,4.99,000.00,019.8,019.4,000.0,028.0,021.5,12.8,0000.0,0002.56,0001.45,0001.20
2024-02-18 19:11:00,SystemResetWarning,0824.0,5.00,000.00,019.8,019.4,000.0,028.1,021.5,12.5,0000.0,0003.36,0001.49,0001.23
2024-02-18 19:12:00,SystemResetWarning,0823.9,5.00,000.00,019.8,019.4,000.0,028.1,021.6,12.5,0000.0,0003.48,0001.54,0001.28
2024-02-18 19:13:00,SystemResetWarning,0823.8,5.00,000.00,019.8,019.4,000.0,028.1,021.6,12.3,0000.0,0003.50,0001.57,0001.32
2024-02-18 19:14:00,SystemResetWarning,0823.8,5.00,000.00,019.8,019.4,000.0,028.1,021.6,11.9,0000.0,0003.46,0001.60,0001.37
2024-02-18 19:15:00,SystemResetWarning,0823.8,5.00,000.00,019.8,019.4,000.0,028.1,021.5,11.8,0000.0,0003.33,0001.61,0001.39
2024-02-18 19:16:00,SystemResetWarning,0823.8,5.00,000.00,019.8,019.4,000.0,028.1,021.6,11.6,0000.0,0003.45,0001.66,0001.43
2024-02-18 19:17:00,SystemResetWarning,0823.8,5.00,000.00,019.8,019.4,000.0,028.1,021.6,11.6,0000.0,0003.46,0001.70,0001.47
2024-02-18 19:18:00,SystemResetWarning,0823.7,5.00,000.00,019.8,019.4,000.0,028.1,021.6,11.7,0000.0,0003.39,0001.72,0001.49
2024-02-18 19:19:00,SystemResetWarning,0823.7,5.00,000.00,019.8,019.4,000.0,028.1,021.6,11.6,0000.0,0003.54,0001.75,0001.51
2024-02-18 19:20:00,SystemResetWarning,0823.7,5.00,000.00,019.8,019.4,000.0,028.1,021.6,11.5,0000.0,0004.21,0001.79,0001.55
2024-02-18 19:21:00,SystemResetWarning,0823.7,5.00,000.00,019.8,019.4,000.0,028.1,021.6,11.9,0000.0,0004.24,0001.81,0001.57
2024-02-18 19:22:00,SystemResetWarning,0823.7,4.99,000.00,019.9,019.4,000.0,028.1,021.6,12.1,0000.0,0003.37,0001.83,0001.59
2024-02-18 19:23:00,SystemResetWarning,0823.7,5.00,000.00,019.9,019.4,000.0,028.1,021.6,12.0,0000.0,0003.31,0001.84,0001.60
2024-02-18 19:24:00,SystemResetWarning,0823.6,5.00,000.00,019.9,019.4,000.0,028.2,021.6,11.6,0000.0,0003.56,0001.88,0001.61
2024-02-18 19:25:00,SystemResetWarning,0823.6,5.00,000.00,019.9,019.5,000.0,028.2,021.6,12.1,0000.0,0003.99,0001.94,0001.60
2024-02-18 19:26:00,SystemResetWarning,0823.6,4.99,000.00,019.9,019.5,000.0,028.2,021.7,12.4,0000.0,0004.14,0001.97,0001.60
2024-02-18 19:27:00,SystemResetWarning,0823.5,5.01,000.00,019.9,019.5,000.0,028.2,021.7,12.2,0000.0,0004.07,0001.97,0001.60
2024-02-18 19:28:00,SystemResetWarning,0823.4,5.01,000.00,019.9,019.5,000.0,028.2,021.7,11.9,0000.0,0004.07,0001.97,0001.60
2024-02-18 19:29:00,SystemResetWarning,0823.5,5.00,000.00,019.9,019.5,000.0,028.2,021.7,11.6,0000.0,0003.99,0001.93,0001.58
2024-02-18 19:30:00,SystemResetWarning,0823.4,5.00,000.00,019.9,019.5,000.0,028.2,021.7,11.7,0000.0,0003.96,0001.95,0001.57
2024-02-18 19:31:00,SystemResetWarning,0823.4,4.99,000.00,020.0,019.6,000.0,028.2,021.7,11.8,0000.0,0003.82,0001.98,0001.56
2024-02-18 19:32:00,SystemResetWarning,0823.5,4.99,000.00,020.0,019.6,000.0,028.2,021.7,11.7,0000.0,0005.30,0002.01,0001.56
2024-02-18 19:33:00,SystemResetWarning,0823.4,5.00,000.00,020.0,019.6,000.0,028.2,021.7,11.6,0000.0,0006.10,0002.04,0001.54
2024-02-18 19:34:00,SystemResetWarning,0823.4,5.01,000.00,020.0,019.6,000.0,028.3,021.7,11.9,0000.0,0006.28,0002.04,0001.53
2024-02-18 19:35:00,SystemResetWarning,0823.4,5.01,000.00,020.0,019.6,000.0,028.3,021.7,11.5,0000.0,0006.07,0002.04,0001.52
2024-02-18 19:36:00,SystemResetWarning,0823.4,5.01,000.00,020.0,019.6,000.0,028.3,021.8,11.2,0000.0,0005.75,0002.01,0001.52
2024-02-18 19:37:00,SystemResetWarning,0823.4,5.00,000.00,020.0,019.6,000.0,028.3,021.8,10.8,0000.0,0007.51,0002.00,0001.52
2024-02-18 19:38:00,SystemResetWarning,0823.4,5.00,000.00,020.0,019.6,000.0,028.3,021.8,10.5,0000.0,0008.08,0002.05,0001.52
2024-02-18 19:39:00,SystemResetWarning,0823.3,5.00,000.00,020.0,019.6,000.0,028.3,021.8,10.8,0000.0,0008.08,0002.04,0001.52
2024-02-18 19:40:00,SystemResetWarning,0823.3,5.00,000.00,020.0,019.6,000.0,028.3,021.8,11.6,0000.0,0008.08,0002.04,0001.52
2024-02-18 19:41:00,SystemResetWarning,0823.2,4.99,000.00,020.0,019.6,000.0,028.3,021.8,11.4,0000.0,0008.08,0002.04,0001.53
2024-02-18 19:42:00,SystemResetWarning,0823.1,5.00,000.00,020.0,019.6,000.0,028.3,021.8,11.3,0000.0,0007.91,0002.00,0001.53
2024-02-18 19:43:00,SystemResetWarning,0823.1,5.00,000.00,020.0,019.6,000.0,028.3,021.8,11.5,0000.0,0007.02,0002.00,0001.54
2024-02-18 19:44:00,SystemResetWarning,0823.2,5.00,000.00,020.0,019.6,000.0,028.3,021.8,10.9,0000.0,0006.14,0001.96,0001.54
2024-02-18 19:45:00,SystemResetWarning,0823.1,5.01,000.00,020.0,019.6,000.0,028.4,021.8,10.7,0000.0,0005.78,0001.94,0001.52
2024-02-18 19:46:00,SystemResetWarning,0823.1,5.01,000.00,020.1,019.6,000.0,028.4,021.8,11.0,0000.0,0005.68,0001.89,0001.51
2024-02-18 19:47:00,SystemResetWarning,0823.2,5.00,000.00,020.1,019.7,000.0,028.4,021.9,11.2,0000.0,0005.63,0001.87,0001.49
2024-02-18 19:48:00,SystemResetWarning,0823.1,4.99,000.00,020.1,019.7,000.0,028.4,021.9,10.8,0000.0,0004.81,0001.90,0001.49
2024-02-18 19:49:00,SystemResetWarning,0823.1,4.99,000.00,020.1,019.7,000.0,028.4,021.9,10.1,0000.0,0002.75,0001.90,0001.49
2024-02-18 19:50:00,SystemResetWarning,0823.1,4.99,000.00,020.1,019.7,000.0,028.4,021.9,09.9,0000.0,0003.21,0001.88,0001.48
2024-02-18 19:51:00,SystemResetWarning,0823.1,5.00,000.00,020.1,019.7,000.0,028.4,021.9,10.8,0000.0,0003.38,0001.93,0001.50
2024-02-18 19:52:00,SystemResetWarning,0823.1,5.00,000.00,020.1,019.7,000.0,028.4,021.9,10.5,0000.0,0003.42,0001.95,0001.51
2024-02-18 19:53:00,SystemResetWarning,0823.1,5.00,000.00,020.1,019.7,000.0,028.4,021.9,10.6,0000.0,0003.39,0001.95,0001.50
2024-02-18 19:54:00,SystemResetWarning,0823.1,5.01,000.00,020.1,019.7,000.0,028.4,021.9,10.5,0000.0,0003.34,0001.93,0001.49
2024-02-18 19:55:00,SystemResetWarning,0823.0,5.00,000.00,020.1,019.7,000.0,028.4,021.9,10.5,0000.0,0003.24,0001.90,0001.49
2024-02-18 19:56:00,SystemResetWarning,0823.0,5.01,000.00,020.1,019.7,000.0,028.4,021.9,10.6,0000.0,0003.37,0001.94,0001.51
2024-02-18 19:57:00,SystemResetWarning,0823.0,5.00,000.00,020.1,019.7,000.0,028.5,021.9,10.5,0000.0,0003.53,0001.96,0001.53
2024-02-18 19:58:00,SystemResetWarning,0823.0,5.00,000.00,020.2,019.7,000.0,028.5,022.0,10.6,0000.0,0003.52,0001.97,0001.54
2024-02-18 19:59:00,SystemResetWarning,0823.0,4.99,000.00,020.2,019.8,000.0,028.5,021.9,10.4,0000.0,0003.38,0001.90,0001.54
